COSMOS 417

Satellite information

Favourite Embed

Satellite Type and Status

PAYLOADIN ORBIT

Key statistics

Satellite COSMOS 417 at a glance.

Uptime

19845

Days in orbit

Revolutions

≈ 12.6

Per day

Orbit

LEO

Low Earth Orbit

Inclination

74.0

Latest

Satellite identification and parameters

Extended collection of information and parameters for COSMOS 417.

Object identification

Identified? True

Debris? False

Object name: COSMOS 417

International designator: 1971-041G

Object number (NORAD): 5216

Object ID (CCSDS): 5216

Country: COMMONWEALTH OF INDEPENDENT STATES (CIS)

Current information (Y/N): Y

RCS size: MEDIUM

Orbital parameters

Period: 114.155 minutes

Inclination: 74.015 deg

SMA: 7795.111 km

Apoapsis: 1491.943 km

Periapsis: 1342.009 km

RAAN: 132.1096 deg

Eccentricy: 0.00961714

Argument of periapsis: 276.2765 deg

Mean anomaly: 241.0584 deg

Mean motion: 12.6144787 rev/day

Mean motion (dot): -0.00000007 rev/day2

B* drag term: 0.000055483309 1/REarth

Two-line elements (TLE)

Creation date: Sept. 4, 2025, 10:13 a.m.

Reference frame: TEME

Reference center: EARTH

Epoch: Sept. 4, 2025, 3:53 a.m. UTC

TLE line 0: 0 COSMOS 417

TLE line 1: 1 05216U 71041G 25247.16241637 -.00000007 00000-0 55483-4 0 9994

TLE line 2: 2 05216 74.0150 132.1096 0096171 276.2765 241.0584 12.61447870501701

Live tracking on map

Real-time ground track for satellite COSMOS 417.

In-orbit conjunctions

A list of the most updated potential collisions computed for object COSMOS 417.

Target Orbit TCA Probability of collision Miss distance Type
DELTA 1 DEB SSO 2024-07-11 03:59:39 0.0002161769 206.0 (m) DEBRIS

Associated space launch

Military communications satellites

COSMOS 417 was lifted into orbit during the mission ‘Kosmos-3M | Strela-1M 9-16’, on board a Kosmos-3M space rocket.

The launch took place on May 7, 1971, 2:20 p.m. from 132/1 (132L).

For more information about the launch, click the button.

Launch to space Kosmos-3M | Strela-1M 9-16
Kosmos-3M | Strela-1M 9-16

Agency: N/A

Status: Launch Successful

Launch date: May 7, 1971, 2:20 p.m. UTC

Rocket: Kosmos-3M

Launch pad: 132/1 (132L)

Location: Plesetsk Cosmodrome, Russian Federation

...

Latest news about this satellite

There are no fresh news available about this satellite. Check back as we update our databases every day.


Newsletter sign-up

Weekly statistics, charts and insights to help you stay on top of the space industry.